Regional Weather Roundup
Issued by NWS

Home | Current Version | Previous Version | Graphics & Text | Print | Product List | Glossary Off
Versions: 1 2 3 4 5 6 7 8 9 10 11 12 13 14 15 16 17 18 19 20 21 22 23 24 25 26 27 28 29 30 31 32 33 34 35 36 37 38 39 40 41 42 43 44 45 46 47 48 49 50

000
ASUS43 KFSD 280402
RWRSD

WEATHER ROUNDUP FOR SOUTH DAKOTA
NATIONAL WEATHER SERVICE SIOUX FALLS SD
1100 PM CDT WED AUG 27 2014

NOTE: "FAIR" INDICATES FEW OR NO CLOUDS BELOW 12,000 FEET WITH NO
SIGNIFICANT WEATHER AND/OR OBSTRUCTIONS TO VISIBILITY.


SDZ001>005-009-010-012>017-280500-
NORTHWEST AND NORTH CENTRAL SOUTH DAKOTA

CITY           SKY/WX    TMP DP  RH WIND       PRES   REMARKS
BUFFALO          N/A     62  60  93 S7        30.01S
FAITH            N/A     65  64  97 CALM      30.06S
MOBRIDGE       CLOUDY    66  64  93 E7        30.00F
$$

SDZ012>016-024>037-041>051-057-063-072>074-280500-
SOUTHWEST AND SOUTH CENTRAL SOUTH DAKOTA

CITY           SKY/WX    TMP DP  RH WIND       PRES   REMARKS
RAPID CTY ARPT CLOUDY    63  61  93 NW6       30.06F
PIERRE         LGT RAIN  68  66  93 SE8       30.02S
CUSTER         CLOUDY    57  54  89 NE5       30.17F
ELLSWORTH AFB  DRIZZLE   64  64 100 W2        30.07F
PHILIP         LGT RAIN  66  65  96 W7        30.02F
PINE RIDGE     HVY RAIN  64  63  96 VRB3      30.04F FOG
WINNER         LGT RAIN  69  67  93 SE10      30.04F
$$

SDZ004>011-016>023-039-040-280500-
NORTHEAST SOUTH DAKOTA

CITY           SKY/WX    TMP DP  RH WIND       PRES   REMARKS
ABERDEEN       MOCLDY    64  63  96 SE5       30.05F
WATERTOWN      PTCLDY    65  62  90 SE5       30.08F
SISSETON         N/A     63  61  93 S5        30.07F
$$

SDZ017-020-022-023-036>040-048>070-280500-
SOUTHEAST SOUTH DAKOTA

CITY           SKY/WX    TMP DP  RH WIND       PRES   REMARKS
SIOUX FALLS    CLOUDY    70  65  84 SE12      30.09S
HURON          MOCLDY    68  64  87 SE7       30.04F
CHAMBERLAIN    CLOUDY    67  66  96 SE8       30.04F
MITCHELL       LGT RAIN  68  66  93 SE7       30.06S
YANKTON        CLOUDY    68  66  94 E6        30.06F
$$

ABBREVIATIONS USED IN REMARKS
   TC - TEMPERATURE IN CELSIUS
  WCI - WIND CHILL INDEX
   HX - HEAT INDEX
  VSB - VISIBILITY




USA.gov is the U.S. government's official web portal to all federal, state and local government web resources and services.